Time,TemperatureF,DewpointF,PressureIn,WindDirection,WindDirectionDegrees,WindSpeedMPH,WindSpeedGustMPH,Humidity,HourlyPrecipIn,Conditions,Clouds,dailyrainin,SoftwareType,DateUTC
2013-05-01 00:02:00,54.0,19.0,-100.00,West,270,6.0,12.0,25,0.00,,,-99.99,,2013-05-01 05:02:00,
2013-05-01 00:11:00,54.0,19.0,-100.00,West,270,6.0,12.0,25,0.00,,,-99.99,,2013-05-01 05:11:00,
2013-05-01 00:21:00,54.0,19.0,-100.00,West,270,6.0,12.0,25,0.00,,,-99.99,,2013-05-01 05:21:00,
2013-05-01 00:32:00,54.0,19.0,-100.00,West,270,6.0,12.0,25,0.00,,,-99.99,,2013-05-01 05:32:00,
2013-05-01 01:02:00,54.0,22.0,-100.00,WNW,285,7.0,13.0,28,0.00,,,-99.99,,2013-05-01 06:02:00,
2013-05-01 01:12:00,54.0,22.0,-100.00,WNW,285,7.0,13.0,28,0.00,,,-99.99,,2013-05-01 06:12:00,
2013-05-01 01:22:00,54.0,22.0,-100.00,WNW,285,7.0,13.0,28,0.00,,,-99.99,,2013-05-01 06:22:00,
2013-05-01 01:32:00,54.0,22.0,-100.00,WNW,285,7.0,13.0,28,0.00,,,-99.99,,2013-05-01 06:32:00,
2013-05-01 02:01:00,53.0,23.0,-100.00,WNW,285,6.0,12.0,31,0.00,,,-99.99,,2013-05-01 07:01:00,
2013-05-01 02:11:00,53.0,23.0,-100.00,WNW,285,6.0,12.0,31,0.00,,,-99.99,,2013-05-01 07:11:00,
2013-05-01 02:21:00,53.0,23.0,-100.00,WNW,285,6.0,12.0,31,0.00,,,-99.99,,2013-05-01 07:21:00,
2013-05-01 02:32:00,53.0,23.0,-100.00,WNW,285,6.0,12.0,31,0.00,,,-99.99,,2013-05-01 07:32:00,
2013-05-01 03:02:00,51.0,23.0,-100.00,WNW,295,6.0,15.0,34,0.00,,,-99.99,,2013-05-01 08:02:00,
2013-05-01 03:11:00,51.0,23.0,-100.00,WNW,295,6.0,15.0,34,0.00,,,-99.99,,2013-05-01 08:11:00,
2013-05-01 03:22:00,51.0,23.0,-100.00,WNW,295,6.0,15.0,34,0.00,,,-99.99,,2013-05-01 08:22:00,
2013-05-01 03:32:00,51.0,23.0,-100.00,WNW,295,6.0,15.0,34,0.00,,,-99.99,,2013-05-01 08:32:00,
2013-05-01 04:01:00,48.0,24.0,-100.00,West,275,6.0,9.0,39,0.00,,,-99.99,,2013-05-01 09:01:00,
2013-05-01 04:12:00,48.0,24.0,-100.00,West,275,6.0,9.0,39,0.00,,,-99.99,,2013-05-01 09:12:00,
2013-05-01 04:21:00,48.0,24.0,-100.00,West,275,6.0,9.0,39,0.00,,,-99.99,,2013-05-01 09:21:00,
2013-05-01 04:33:00,48.0,24.0,-100.00,West,275,6.0,9.0,39,0.00,,,-99.99,,2013-05-01 09:33:00,
2013-05-01 06:02:00,45.0,26.0,-100.00,NW,310,1.0,4.0,47,0.00,,,-99.99,,2013-05-01 11:02:00,
2013-05-01 06:11:00,45.0,26.0,-100.00,NW,310,1.0,4.0,47,0.00,,,-99.99,,2013-05-01 11:11:00,
2013-05-01 06:22:00,45.0,26.0,-100.00,NW,310,1.0,4.0,47,0.00,,,-99.99,,2013-05-01 11:22:00,
2013-05-01 06:32:00,45.0,26.0,-100.00,NW,310,1.0,4.0,47,0.00,,,-99.99,,2013-05-01 11:32:00,
2013-05-01 07:01:00,42.0,29.0,-100.00,WNW,290,5.0,14.0,60,0.00,,,-99.99,,2013-05-01 12:01:00,
2013-05-01 07:11:00,42.0,29.0,-100.00,WNW,290,5.0,14.0,60,0.00,,,-99.99,,2013-05-01 12:11:00,
2013-05-01 07:21:00,42.0,29.0,-100.00,WNW,290,5.0,14.0,60,0.00,,,-99.99,,2013-05-01 12:21:00,
2013-05-01 07:31:00,42.0,29.0,-100.00,WNW,290,5.0,14.0,60,0.00,,,-99.99,,2013-05-01 12:31:00,
2013-05-01 07:52:00,40.0,29.0,-100.00,West,280,6.0,13.0,64,0.00,,,-99.99,,2013-05-01 12:52:00,
2013-05-01 08:01:00,40.0,29.0,-100.00,West,280,6.0,13.0,64,0.00,,,-99.99,,2013-05-01 13:01:00,
2013-05-01 08:11:00,40.0,29.0,-100.00,West,280,6.0,13.0,64,0.00,,,-99.99,,2013-05-01 13:11:00,
2013-05-01 08:21:00,40.0,29.0,-100.00,West,280,6.0,13.0,64,0.00,,,-99.99,,2013-05-01 13:21:00,
2013-05-01 08:32:00,40.0,29.0,-100.00,West,280,6.0,13.0,64,0.00,,,-99.99,,2013-05-01 13:32:00,
2013-05-01 09:02:00,39.0,28.0,-100.00,WNW,285,6.0,14.0,64,0.00,,,-99.99,,2013-05-01 14:02:00,
2013-05-01 09:11:00,39.0,28.0,-100.00,WNW,285,6.0,14.0,64,0.00,,,-99.99,,2013-05-01 14:11:00,
2013-05-01 09:22:00,39.0,28.0,-100.00,WNW,285,6.0,14.0,64,0.00,,,-99.99,,2013-05-01 14:22:00,
2013-05-01 09:32:00,39.0,28.0,-100.00,WNW,285,6.0,14.0,64,0.00,,,-99.99,,2013-05-01 14:32:00,
2013-05-01 10:01:00,35.0,31.0,-100.00,West,275,6.0,11.0,85,0.00,,,-99.99,,2013-05-01 15:01:00,
2013-05-01 10:11:00,35.0,31.0,-100.00,West,275,6.0,11.0,85,0.00,,,-99.99,,2013-05-01 15:11:00,
2013-05-01 10:21:00,35.0,31.0,-100.00,West,275,6.0,11.0,85,0.00,,,-99.99,,2013-05-01 15:21:00,
2013-05-01 10:33:00,35.0,31.0,-100.00,West,275,6.0,11.0,85,0.00,,,-99.99,,2013-05-01 15:33:00,
2013-05-01 11:03:00,34.0,30.0,-100.00,West,280,7.0,12.0,87,0.00,,,-99.99,,2013-05-01 16:03:00,
2013-05-01 11:12:00,34.0,30.0,-100.00,West,280,7.0,12.0,87,0.00,,,-99.99,,2013-05-01 16:12:00,
2013-05-01 11:22:00,34.0,30.0,-100.00,West,280,7.0,12.0,87,0.00,,,-99.99,,2013-05-01 16:22:00,
2013-05-01 11:32:00,34.0,30.0,-100.00,West,280,7.0,12.0,87,0.00,,,-99.99,,2013-05-01 16:32:00,
2013-05-01 12:02:00,33.0,27.0,-100.00,West,270,6.0,11.0,81,0.00,,,-99.99,,2013-05-01 17:02:00,
2013-05-01 12:12:00,33.0,27.0,-100.00,West,270,6.0,11.0,81,0.00,,,-99.99,,2013-05-01 17:12:00,
2013-05-01 12:22:00,33.0,27.0,-100.00,West,270,6.0,11.0,81,0.00,,,-99.99,,2013-05-01 17:22:00,
2013-05-01 12:32:00,33.0,27.0,-100.00,West,270,6.0,11.0,81,0.00,,,-99.99,,2013-05-01 17:32:00,
2013-05-01 13:01:00,33.0,28.0,-100.00,West,265,6.0,12.0,83,0.00,,,-99.99,,2013-05-01 18:01:00,
2013-05-01 13:11:00,33.0,28.0,-100.00,West,265,6.0,12.0,83,0.00,,,-99.99,,2013-05-01 18:11:00,
2013-05-01 13:22:00,33.0,28.0,-100.00,West,265,6.0,12.0,83,0.00,,,-99.99,,2013-05-01 18:22:00,
2013-05-01 13:32:00,33.0,28.0,-100.00,West,265,6.0,12.0,83,0.00,,,-99.99,,2013-05-01 18:32:00,
2013-05-01 14:02:00,33.0,28.0,-100.00,WNW,290,4.0,12.0,81,0.17,,,-99.99,,2013-05-01 19:02:00,
2013-05-01 14:11:00,33.0,28.0,-100.00,WNW,290,4.0,12.0,81,0.17,,,-99.99,,2013-05-01 19:11:00,
2013-05-01 14:22:00,33.0,28.0,-100.00,WNW,290,4.0,12.0,81,0.17,,,-99.99,,2013-05-01 19:22:00,
2013-05-01 14:32:00,33.0,28.0,-100.00,WNW,290,4.0,12.0,81,0.17,,,-99.99,,2013-05-01 19:32:00,
2013-05-01 14:52:00,34.0,28.0,-100.00,West,270,2.0,6.0,78,0.01,,,-99.99,,2013-05-01 19:52:00,
2013-05-01 15:02:00,34.0,28.0,-100.00,West,270,2.0,6.0,78,0.01,,,-99.99,,2013-05-01 20:02:00,
2013-05-01 15:11:00,34.0,28.0,-100.00,West,270,2.0,6.0,78,0.01,,,-99.99,,2013-05-01 20:11:00,
2013-05-01 15:21:00,34.0,28.0,-100.00,West,270,2.0,6.0,78,0.01,,,-99.99,,2013-05-01 20:21:00,
2013-05-01 15:32:00,34.0,28.0,-100.00,West,270,2.0,6.0,78,0.01,,,-99.99,,2013-05-01 20:32:00,
2013-05-01 16:01:00,35.0,29.0,-100.00,SW,230,0.0,4.0,78,0.00,,,-99.99,,2013-05-01 21:01:00,
2013-05-01 16:11:00,35.0,29.0,-100.00,SW,230,0.0,4.0,78,0.00,,,-99.99,,2013-05-01 21:11:00,
2013-05-01 16:22:00,35.0,29.0,-100.00,SW,230,0.0,4.0,78,0.00,,,-99.99,,2013-05-01 21:22:00,
2013-05-01 16:32:00,35.0,29.0,-100.00,SW,230,0.0,4.0,78,0.00,,,-99.99,,2013-05-01 21:32:00,
2013-05-01 17:03:00,36.0,29.0,-100.00,SW,225,1.0,4.0,76,0.00,,,-99.99,,2013-05-01 22:03:00,
2013-05-01 17:12:00,36.0,29.0,-100.00,SW,225,1.0,4.0,76,0.00,,,-99.99,,2013-05-01 22:12:00,
2013-05-01 17:23:00,36.0,29.0,-100.00,SW,225,1.0,4.0,76,0.00,,,-99.99,,2013-05-01 22:23:00,
2013-05-01 17:33:00,36.0,29.0,-100.00,SW,225,1.0,4.0,76,0.00,,,-99.99,,2013-05-01 22:33:00,
2013-05-01 18:02:00,36.0,29.0,-100.00,West,265,1.0,2.0,75,0.00,,,-99.99,,2013-05-01 23:02:00,
2013-05-01 18:12:00,36.0,29.0,-100.00,West,265,1.0,2.0,75,0.00,,,-99.99,,2013-05-01 23:12:00,
2013-05-01 18:21:00,36.0,29.0,-100.00,West,265,1.0,2.0,75,0.00,,,-99.99,,2013-05-01 23:21:00,
2013-05-01 18:32:00,36.0,29.0,-100.00,West,265,1.0,2.0,75,0.00,,,-99.99,,2013-05-01 23:32:00,
2013-05-01 19:01:00,36.0,31.0,-100.00,South,175,0.0,0.0,79,0.00,,,-99.99,,2013-05-02 00:01:00,
2013-05-01 19:11:00,36.0,31.0,-100.00,South,175,0.0,0.0,79,0.00,,,-99.99,,2013-05-02 00:11:00,
2013-05-01 19:21:00,36.0,31.0,-100.00,South,175,0.0,0.0,79,0.00,,,-99.99,,2013-05-02 00:21:00,
2013-05-01 19:32:00,36.0,31.0,-100.00,South,175,0.0,0.0,79,0.00,,,-99.99,,2013-05-02 00:32:00,
2013-05-01 20:01:00,36.0,31.0,-100.00,NW,310,2.0,6.0,81,0.00,,,-99.99,,2013-05-02 01:01:00,
2013-05-01 20:11:00,36.0,31.0,-100.00,NW,310,2.0,6.0,81,0.00,,,-99.99,,2013-05-02 01:11:00,
2013-05-01 20:21:00,36.0,31.0,-100.00,NW,310,2.0,6.0,81,0.00,,,-99.99,,2013-05-02 01:21:00,
2013-05-01 20:32:00,36.0,31.0,-100.00,NW,310,2.0,6.0,81,0.00,,,-99.99,,2013-05-02 01:32:00,
2013-05-01 21:02:00,37.0,21.0,-100.00,NNW,330,2.0,7.0,51,0.00,,,-99.99,,2013-05-02 02:02:00,
2013-05-01 21:12:00,37.0,21.0,-100.00,NNW,330,2.0,7.0,51,0.00,,,-99.99,,2013-05-02 02:12:00,
2013-05-01 21:21:00,37.0,21.0,-100.00,NNW,330,2.0,7.0,51,0.00,,,-99.99,,2013-05-02 02:21:00,
2013-05-01 21:32:00,37.0,21.0,-100.00,NNW,330,2.0,7.0,51,0.00,,,-99.99,,2013-05-02 02:32:00,
2013-05-01 22:01:00,36.0,19.0,-100.00,North,0,4.0,14.0,50,0.03,,,-99.99,,2013-05-02 03:01:00,
2013-05-01 22:11:00,36.0,19.0,-100.00,North,0,4.0,14.0,50,0.03,,,-99.99,,2013-05-02 03:11:00,
2013-05-01 22:22:00,36.0,19.0,-100.00,North,0,4.0,14.0,50,0.03,,,-99.99,,2013-05-02 03:22:00,
2013-05-01 22:33:00,36.0,19.0,-100.00,North,0,4.0,14.0,50,0.03,,,-99.99,,2013-05-02 03:33:00,
2013-05-01 22:53:00,33.0,26.0,-100.00,NNE,15,2.0,6.0,75,1.33,,,-99.99,,2013-05-02 03:53:00,
2013-05-01 23:03:00,33.0,26.0,-100.00,NW,305,0.0,3.0,78,2.22,,,-99.99,,2013-05-02 04:03:00,
2013-05-01 23:12:00,33.0,26.0,-100.00,NW,305,0.0,3.0,78,2.22,,,-99.99,,2013-05-02 04:12:00,
2013-05-01 23:23:00,33.0,26.0,-100.00,NW,305,0.0,3.0,78,2.22,,,-99.99,,2013-05-02 04:23:00,
2013-05-01 23:33:00,33.0,26.0,-100.00,NW,305,0.0,3.0,78,2.22,,,-99.99,,2013-05-02 04:33:00,